Zurück zum Katalog

STARLINK-37700

AktivKommunikationSSO
NORAD 69215·PAYLOAD·🇺🇸 United States

Gestartet May 26, 2026 von Vandenberg Space Force Base

Loading…

Nächste Überflüge (nächste 24 Stunden)

TLE

AktuellSource: CelesTrak SupGP

Epoche: Sep 14, 2026, 23:19 UTC

1 69215C 26115E   26257.97201389  .00039089  00000+0  12134-2 0  2577
2 69215  97.2832 274.0957 0001366  90.3209 149.3113 15.33419565    14

Verfolge STARLINK-37700 in Echtzeit mit AllMySat

Download on the App Store